Location: PACMO
(41.3967°N, 90.3760°W)
Time: 11:10:44
(UTC-05:00)

Amateur Radio Satellites - All Passes

Search period start: 30 August 2014 10:40
Search period end: 31 August 2014 10:40
Location: PACMO, 41.3967°N, 90.3760°W

Satellite Date Start Highest point End Downlink Frequencies (MHz)
Time Altitude Azimuth
ISS 30 Aug 11:11:02 11:14:20 74° 142° (SE) 11:17:40 145.800 FM
UKube-1 30 Aug 11:11:12 11:15:16 40° 289° (WNW) 11:19:18 145.840 MHz, 145.915 MHz
SO-50 30 Aug 11:14:47 11:17:15 14° 37° (NE) 11:19:45 436.795 FM
Oscar 11 30 Aug 11:17:43 11:21:58 51° 287° (WNW) 11:26:10 145.825 FM, Beacon 2401.500 USB
KITSAT 1 30 Aug 11:18:13 11:22:39 16° 260° (W) 11:27:05 435.175 FM
FUNcube-1 30 Aug 11:41:46 11:46:17 72° 285° (WNW) 11:50:52 145.950 - 145.970 MHz USB
HO-68 30 Aug 11:42:18 11:48:15 29° 300° (WNW) 11:54:11 435.675 MHz FM
JAS-1B 30 Aug 12:21:42 12:27:10 17° 53° (NE) 12:32:17 435.800 - 435.900 CW/SSB
RS-15 30 Aug 12:43:21 12:51:00 21° 355° (N) 12:58:43 29.354 - 29.394 USB, Beacon 29.352 USB
ISS 30 Aug 12:48:41 12:51:22 22° 341° (NNW) 12:54:04 145.800 FM
MaSat-1 30 Aug 12:50:46 12:54:46 26° 104° (ESE) 12:58:58 437.345 MHz
Oscar 19 30 Aug 12:52:38 12:57:01 29° 66° (ENE) 13:01:25 437.125 CW, 437.150 USB
SO-50 30 Aug 12:53:49 12:58:37 76° 56° (NE) 13:03:28 436.795 FM
UOSAT-12 30 Aug 13:16:43 13:19:43 16° 39° (NE) 13:22:41 437.025 FM, 437.400 FM
AO-Echo 30 Aug 13:23:37 13:27:44 26° 67° (ENE) 13:31:46 ?
PANSAT 30 Aug 13:24:16 13:25:34 11° 175° (S) 13:26:52 not established
ITAMSAT 1 30 Aug 13:24:19 13:28:30 26° 65° (ENE) 13:32:41 435.822 SSB
Oscar 16 30 Aug 13:26:36 13:31:39 61° 73° (ENE) 13:36:46 437.025 USB, Beacon 2401.1428
Uribyol 2 30 Aug 13:33:56 13:38:29 33° 67° (ENE) 13:43:03 436.500 FM
TMSAT-1 30 Aug 13:34:46 13:35:53 11° 57° (ENE) 13:37:01 436.925 FM
AO-27 30 Aug 13:52:20 13:57:16 46° 70° (ENE) 14:02:12 436.795 MHz FM
JAS-1B 30 Aug 14:06:38 14:16:20 68° 71° (ENE) 14:25:03 435.800 - 435.900 CW/SSB
Gurwin Techsat 1B 30 Aug 14:18:25 14:23:14 36° 68° (ENE) 14:28:03 435.225 FM
MaSat-1 30 Aug 14:26:53 14:31:33 41° 303° (WNW) 14:36:28 437.345 MHz
ISS 30 Aug 14:27:09 14:29:01 14° 1° (N) 14:30:54 145.800 FM
Oscar 19 30 Aug 14:31:31 14:36:13 35° 263° (W) 14:40:58 437.125 CW, 437.150 USB
SO-50 30 Aug 14:36:22 14:38:35 13° 252° (WSW) 14:40:49 436.795 FM
AO-7 30 Aug 14:48:46 14:55:15 26° 54° (NE) 15:01:43 29.400 - 29.500 MHz
UOSAT-12 30 Aug 14:55:44 15:00:30 84° 239° (WSW) 15:05:09 437.025 FM, 437.400 FM
RS-15 30 Aug 14:58:57 15:08:21 31° 31° (NNE) 15:17:57 29.354 - 29.394 USB, Beacon 29.352 USB
AO-Echo 30 Aug 15:01:42 15:06:21 36° 262° (W) 15:10:53 ?
ITAMSAT 1 30 Aug 15:02:56 15:07:46 40° 262° (W) 15:12:38 435.822 SSB
PANSAT 30 Aug 15:04:02 15:04:57 11° 188° (S) 15:05:52 not established
Oscar 16 30 Aug 15:08:16 15:11:25 16° 269° (W) 15:14:35 437.025 USB, Beacon 2401.1428
TMSAT-1 30 Aug 15:09:38 15:14:54 77° 75° (ENE) 15:20:12 436.925 FM
Oscar 10/S400 30 Aug 15:10:07 15:19:27 13° 147° (SSE) 15:27:44 145.825 - 145.975 CW/USB, Beacon 145.810 USB
Uribyol 2 30 Aug 15:13:25 15:17:55 30° 264° (W) 15:22:28 436.500 FM
AO-27 30 Aug 15:33:05 15:36:59 21° 267° (W) 15:40:55 436.795 MHz FM
Uosat F 30 Aug 15:51:41 15:56:17 38° 69° (ENE) 16:00:53 435.120 FM
Gurwin Techsat 1B 30 Aug 15:58:41 16:03:13 29° 265° (W) 16:07:47 435.225 FM
JAS-1B 30 Aug 15:58:48 16:07:08 31° 267° (W) 16:14:54 435.800 - 435.900 CW/SSB
ISS 30 Aug 16:03:51 16:06:39 24° 21° (NNE) 16:09:26 145.800 FM
PCSat 30 Aug 16:07:32 16:11:00 18° 105° (ESE) 16:14:28 145.825 MHz
AO-7 30 Aug 16:38:53 16:47:14 77° 254° (WSW) 16:55:36 29.400 - 29.500 MHz
JAS-2 30 Aug 16:43:40 16:47:10 16° 62° (ENE) 16:50:29 435.800 - 435.900 CW/SSB, 435.910 FM
TMSAT-1 30 Aug 16:53:06 16:55:24 13° 271° (W) 16:57:43 436.925 FM
Hamsat 30 Aug 17:09:48 17:12:54 20° 66° (ENE) 17:16:03 145.90 MHz
RS-15 30 Aug 17:11:22 17:22:31 84° 57° (ENE) 17:34:06 29.354 - 29.394 USB, Beacon 29.352 USB
OPAL 30 Aug 17:12:07 17:17:05 42° 101° (E) 17:22:00 ?
Sapphire 30 Aug 17:18:57 17:24:18 69° 116° (ESE) 17:29:42 437.095 MHz 1200 baud AX-25 AFSK
Uosat F 30 Aug 17:31:05 17:35:09 25° 265° (W) 17:39:14 435.120 FM
ISS 30 Aug 17:40:18 17:43:36 61° 219° (SW) 17:46:53 145.800 FM
PCSat 30 Aug 17:48:29 17:53:50 65° 302° (WNW) 17:59:15 145.825 MHz
SO-67 30 Aug 18:13:16 18:13:48 10° 65° (ENE) 18:14:19 435.3500 MHz FM
JAS-2 30 Aug 18:25:33 18:31:48 75° 257° (WSW) 18:37:22 435.800 - 435.900 CW/SSB, 435.910 FM
AO-7 30 Aug 18:37:17 18:41:16 14° 272° (W) 18:45:16 29.400 - 29.500 MHz
Hamsat 30 Aug 18:44:35 18:48:36 38° 263° (W) 18:52:40 145.90 MHz
OPAL 30 Aug 18:51:28 18:55:42 26° 297° (WNW) 18:59:55 ?
STRAND 1 30 Aug 18:56:11 19:00:06 22° 94° (E) 19:03:59 ?
Sapphire 30 Aug 19:04:14 19:08:15 21° 315° (NW) 19:12:18 437.095 MHz 1200 baud AX-25 AFSK
RS-15 30 Aug 19:25:11 19:33:36 26° 258° (WSW) 19:42:17 29.354 - 29.394 USB, Beacon 29.352 USB
PCSat 30 Aug 19:35:56 19:38:21 13° 323° (NW) 19:40:46 145.825 MHz
SO-67 30 Aug 19:43:03 19:46:24 48° 261° (W) 19:49:47 435.3500 MHz FM
HO-68 30 Aug 20:22:32 20:29:10 43° 65° (ENE) 20:35:48 435.675 MHz FM
UKube-1 30 Aug 20:32:02 20:34:52 17° 64° (ENE) 20:37:43 145.840 MHz, 145.915 MHz
STRAND 1 30 Aug 20:34:38 20:39:28 44° 290° (WNW) 20:44:18 ?
Oscar 11 30 Aug 20:39:17 20:41:08 13° 62° (ENE) 20:42:59 145.825 FM, Beacon 2401.500 USB
AO-40 30 Aug 21:20:35 01:32:17 36° 188° (S) 06:50:58 Beacon 2401.320
KITSAT 1 30 Aug 21:59:00 22:02:05 13° 98° (E) 22:05:11 435.175 FM
UKube-1 30 Aug 22:06:34 22:10:43 45° 260° (W) 22:14:54 145.840 MHz, 145.915 MHz
HO-68 30 Aug 22:10:25 22:16:54 37° 263° (W) 22:23:25 435.675 MHz FM
Oscar 11 30 Aug 22:12:28 22:16:46 65° 259° (W) 22:21:06 145.825 FM, Beacon 2401.500 USB
FUNcube-1 30 Aug 22:38:18 22:42:28 89° 251° (WSW) 22:46:46 145.950 - 145.970 MHz USB
MaSat-1 30 Aug 22:44:28 22:48:59 49° 59° (ENE) 22:52:52 437.345 MHz
Saudisat 1A 30 Aug 22:57:36 23:01:59 72° 121° (ESE) 23:06:24 436.775 MHz
KITSAT 1 30 Aug 23:48:00 23:56:02 71° 116° (ESE) 00:04:05 435.175 FM
MaSat-1 31 Aug 00:22:55 00:25:21 15° 260° (W) 00:27:36 437.345 MHz
Sapphire 31 Aug 00:25:53 00:27:35 11° 35° (NE) 00:29:16 437.095 MHz 1200 baud AX-25 AFSK
Saudisat 1A 31 Aug 00:39:13 00:42:03 17° 319° (NW) 00:44:55 436.775 MHz
PCSat 31 Aug 00:53:59 00:57:43 18° 43° (NE) 01:01:25 145.825 MHz
Oscar 16 31 Aug 01:39:03 01:42:59 21° 93° (E) 01:46:54 437.025 USB, Beacon 2401.1428
KITSAT 1 31 Aug 01:45:05 01:52:06 31° 318° (NW) 01:59:10 435.175 FM
Uribyol 2 31 Aug 01:49:03 01:50:16 11° 88° (E) 01:51:28 436.500 FM
JAS-1B 31 Aug 01:56:52 01:59:49 13° 84° (E) 02:02:37 435.800 - 435.900 CW/SSB
AO-27 31 Aug 02:06:29 02:09:40 16° 91° (E) 02:12:50 436.795 MHz FM
Sapphire 31 Aug 02:06:54 02:12:15 55° 57° (ENE) 02:17:34 437.095 MHz 1200 baud AX-25 AFSK
Gurwin Techsat 1B 31 Aug 02:35:58 02:38:39 14° 90° (E) 02:41:20 435.225 FM
PCSat 31 Aug 02:36:21 02:41:48 81° 242° (WSW) 02:47:12 145.825 MHz
Oscar 19 31 Aug 02:42:26 02:47:40 82° 103° (ESE) 02:52:51 437.125 CW, 437.150 USB
OPAL 31 Aug 02:53:07 02:54:08 11° 54° (NE) 02:55:09 ?
AO-Echo 31 Aug 03:08:19 03:13:01 70° 102° (ESE) 03:17:43 ?
SO-50 31 Aug 03:09:55 03:13:25 23° 112° (ESE) 03:16:59 436.795 FM
ITAMSAT 1 31 Aug 03:15:16 03:20:27 72° 103° (ESE) 03:25:38 435.822 SSB
Oscar 16 31 Aug 03:17:35 03:22:33 47° 290° (WNW) 03:27:29 437.025 USB, Beacon 2401.1428
Uribyol 2 31 Aug 03:25:10 03:30:23 87° 285° (WNW) 03:35:36 436.500 FM
TMSAT-1 31 Aug 03:25:50 03:30:29 30° 96° (E) 03:35:06 436.925 FM
AO-27 31 Aug 03:44:28 03:49:35 61° 288° (WNW) 03:54:41 436.795 MHz FM
JAS-1B 31 Aug 03:44:50 03:51:40 82° 286° (WNW) 03:57:33 435.800 - 435.900 CW/SSB
KITSAT 1 31 Aug 03:47:34 03:50:40 12° 346° (NNW) 03:53:46 435.175 FM
Oscar 10/S400 31 Aug 03:48:19 05:00:44 33° 238° (WSW) 09:00:10 145.825 - 145.975 CW/USB, Beacon 145.810 USB
Sapphire 31 Aug 03:51:16 03:55:14 21° 254° (WSW) 03:59:11 437.095 MHz 1200 baud AX-25 AFSK
Uosat F 31 Aug 04:01:49 04:03:07 11° 89° (E) 04:04:25 435.120 FM
Gurwin Techsat 1B 31 Aug 04:13:51 04:19:09 72° 286° (WNW) 04:24:26 435.225 FM
Oscar 19 31 Aug 04:23:47 04:26:18 14° 301° (WNW) 04:28:48 437.125 CW, 437.150 USB
OPAL 31 Aug 04:27:03 04:32:06 76° 72° (ENE) 04:37:15 ?
AO-7 31 Aug 04:40:47 04:48:18 37° 98° (E) 04:55:45 29.400 - 29.500 MHz
AO-Echo 31 Aug 04:49:04 04:51:13 13° 299° (WNW) 04:53:22 ?
SO-50 31 Aug 04:49:30 04:53:43 40° 310° (NW) 04:58:04 436.795 FM
ITAMSAT 1 31 Aug 04:56:24 04:59:20 15° 300° (WNW) 05:02:16 435.822 SSB
TMSAT-1 31 Aug 05:05:39 05:10:23 34° 292° (WNW) 05:15:06 436.925 FM
Uribyol 2 31 Aug 05:07:13 05:09:04 12° 302° (WNW) 05:10:55 436.500 FM
UOSAT-12 31 Aug 05:07:26 05:11:23 29° 113° (ESE) 05:15:23 437.025 FM, 437.400 FM
JAS-2 31 Aug 05:37:09 05:38:21 11° 90° (E) 05:39:34 435.800 - 435.900 CW/SSB, 435.910 FM
Uosat F 31 Aug 05:37:29 05:42:30 82° 285° (WNW) 05:47:30 435.120 FM
JAS-1B 31 Aug 05:37:47 05:40:56 14° 310° (NW) 05:43:54 435.800 - 435.900 CW/SSB
KITSAT 1 31 Aug 05:46:47 05:50:30 14° 18° (NNE) 05:54:12 435.175 FM
Saudisat 1A 31 Aug 05:47:39 05:48:09 10° 34° (NE) 05:48:39 436.775 MHz
OPAL 31 Aug 06:09:25 06:11:33 13° 269° (W) 06:13:42 ?
STRAND 1 31 Aug 06:12:07 06:16:36 32° 67° (ENE) 06:21:06 ?
Hamsat 31 Aug 06:30:08 06:34:11 37° 97° (E) 06:38:10 145.90 MHz
AO-7 31 Aug 06:33:21 06:41:15 51° 296° (WNW) 06:49:08 29.400 - 29.500 MHz
UOSAT-12 31 Aug 06:47:09 06:51:25 35° 311° (NW) 06:55:45 437.025 FM, 437.400 FM
SO-67 31 Aug 07:08:39 07:09:42 11° 91° (E) 07:10:45 435.3500 MHz FM
JAS-2 31 Aug 07:18:46 07:24:02 86° 285° (WNW) 07:29:43 435.800 - 435.900 CW/SSB, 435.910 FM
Uosat F 31 Aug 07:19:29 07:20:27 11° 303° (WNW) 07:21:25 435.120 FM
Saudisat 1A 31 Aug 07:24:19 07:28:41 57° 54° (NE) 07:33:01 436.775 MHz
RS-15 31 Aug 07:34:43 07:45:21 55° 112° (ESE) 07:55:48 29.354 - 29.394 USB, Beacon 29.352 USB
KITSAT 1 31 Aug 07:41:21 07:48:44 37° 45° (NE) 07:56:03 435.175 FM
STRAND 1 31 Aug 07:51:19 07:55:45 30° 264° (W) 08:00:14 ?
Hamsat 31 Aug 08:06:41 08:09:53 20° 294° (WNW) 08:13:03 145.90 MHz
AO-7 31 Aug 08:29:32 08:32:06 12° 318° (NW) 08:34:40 29.400 - 29.500 MHz
SO-67 31 Aug 08:39:41 08:42:57 39° 286° (WNW) 08:46:11 435.3500 MHz FM
Saudisat 1A 31 Aug 09:05:16 09:07:48 15° 251° (WSW) 09:10:19 436.775 MHz
JAS-2 31 Aug 09:07:03 09:08:27 11° 302° (WNW) 09:09:51 435.800 - 435.900 CW/SSB, 435.910 FM
KITSAT 1 31 Aug 09:36:37 09:44:29 58° 246° (WSW) 09:52:19 435.175 FM
HO-68 31 Aug 09:37:12 09:43:58 44° 99° (E) 09:50:43 435.675 MHz FM
RS-15 31 Aug 09:47:22 09:57:52 48° 316° (NW) 10:08:21 29.354 - 29.394 USB, Beacon 29.352 USB
UKube-1 31 Aug 09:54:54 09:58:41 29° 97° (E) 10:02:27 145.840 MHz, 145.915 MHz
Oscar 11 31 Aug 10:00:39 10:04:07 22° 94° (E) 10:07:33 145.825 FM, Beacon 2401.500 USB
ISS 31 Aug 10:22:45 10:25:54 41° 138° (SE) 10:29:03 145.800 FM
FUNcube-1 31 Aug 10:28:02 10:31:15 19° 93° (E) 10:34:29 145.950 - 145.970 MHz USB
